Weather History for Window Rock, AZ

Change the Weather History Date:

Saturday, March 30, 2013

  Actual Average Record
Temperature  
Mean Temperature 44 °F -  
Max Temperature 64 °F 53 °F 70 °F (1971)
Min Temperature 25 °F 23 °F 3 °F (1987)
Degree Days  
Heating Degree Days 21    
Moisture  
Dew Point 17 °F    
Average Humidity 34    
Maximum Humidity 60    
Minimum Humidity 16    
Precipitation  
Precipitation 0.00 in - - ()
Sea Level Pressure  
Sea Level Pressure 30.05 in    
Wind  
Wind Speed 2 mph (SW)    
Max Wind Speed 15 mph    
Max Gust Speed 20 mph    
Visibility 10 miles    
Events      
Averages and records for this station are not official NWS values.
T = Trace of Precipitation, MM = Missing Value Source: NWS Daily Summary

Daily Weather History Graph

Daily Weather History Graph

Search for Another Location

Airport:

Trip Planner

Search our weather history database for the weather conditions in past years. The results will help you decide how hot, cold, wet, or windy it might be!

Date:

Astronomy

Mar. 30, 2013 Rise Set
Actual Time 7:05 AM MDT 7:36 PM MDT
Civil Twilight 6:39 AM MDT 8:02 PM MDT
Nautical Twilight 6:09 AM MDT 8:32 PM MDT
Astronomical Twilight 5:38 AM MDT 9:03 PM MDT
Moon 11:38 PM MDT (3/30) 9:10 AM MDT (3/30)
Length of Visible Light 13h 22m
Length of Day
12h 31m
Waning Gibbous, 86% of the Moon is Illuminated
Mar 30
Waning Gibbous
Apr 2
Last Quarter
Apr 10
New
Apr 18
First Quarter
Apr 25
Full

Hourly Weather History & Observations

Time (MDT) Temp. Windchill Dew Point Humidity Pressure Visibility Wind Dir Wind Speed Gust Speed Precip Events Conditions
12:53 AM 34.0 °F - 12.0 °F 40% 30.09 in 10.0 mi Calm Calm - N/A   Clear
1:53 AM 30.9 °F - 12.0 °F 46% 30.09 in 10.0 mi Calm Calm - N/A   Clear
2:53 AM 30.0 °F - 10.9 °F 45% 30.08 in 10.0 mi Calm Calm - N/A   Clear
3:53 AM 28.9 °F - 12.9 °F 51% 30.08 in 10.0 mi Calm Calm - N/A   Clear
4:53 AM 27.0 °F - 12.9 °F 56% 30.09 in 10.0 mi Calm Calm - N/A   Clear
5:53 AM 25.0 °F - 12.9 °F 60% 30.11 in 10.0 mi Calm Calm - N/A   Clear
7:53 AM 28.9 °F - 15.1 °F 56% 30.16 in 10.0 mi Calm Calm - N/A   Clear
8:53 AM 39.0 °F - 16.0 °F 39% 30.13 in 10.0 mi Calm Calm - N/A   Clear
9:53 AM 48.0 °F - 17.1 °F 29% 30.10 in 10.0 mi Calm Calm - N/A   Clear
10:53 AM 57.9 °F - 17.1 °F 20% 30.05 in 10.0 mi Calm Calm - N/A   Clear
11:53 AM 63.0 °F - 18.0 °F 18% 30.00 in 10.0 mi SSW 8.1 mph - N/A   Clear
12:53 PM 63.0 °F - 18.0 °F 18% 30.03 in 10.0 mi South 11.5 mph - N/A   Mostly Cloudy
1:53 PM 62.1 °F - 17.1 °F 18% 30.02 in 10.0 mi Variable 5.8 mph - N/A   Overcast
2:53 PM 63.0 °F - 16.0 °F 16% 30.00 in 10.0 mi SW 13.8 mph 19.6 mph N/A   Mostly Cloudy
3:53 PM 62.1 °F - 17.1 °F 18% 30.00 in 10.0 mi SW 10.4 mph - N/A   Scattered Clouds
4:53 PM 61.0 °F - 17.1 °F 18% 30.01 in 10.0 mi Variable 5.8 mph 17.3 mph N/A   Overcast
5:53 PM 59.0 °F - 19.0 °F 21% 30.04 in 10.0 mi WNW 15.0 mph 19.6 mph N/A   Overcast
6:53 PM 57.0 °F - 19.9 °F 24% 30.05 in 10.0 mi West 6.9 mph - N/A   Overcast
7:53 PM 54.0 °F - 21.9 °F 29% 30.05 in 10.0 mi West 6.9 mph - N/A   Overcast
8:53 PM 51.1 °F - 23.0 °F 33% 30.03 in 10.0 mi Calm Calm - N/A   Overcast
9:53 PM 48.0 °F - 23.0 °F 37% 30.01 in 10.0 mi Calm Calm - N/A   Overcast
10:53 PM 44.1 °F 42.5 °F 23.0 °F 43% 29.99 in 10.0 mi South 3.5 mph - N/A   Clear
11:53 PM 39.0 °F - 21.9 °F 50% 29.98 in 10.0 mi Calm Calm - N/A   Scattered Clouds